SKYSAT-C3 (41774 NORAD) Tracking and Keplerian Element Data

This shows tracking and keplerian element data for the satellite.

Feedback or suggestion? Click here.




ElementValue
Catalog41774
NameSKYSAT-C3
Epoch Orbit10248
Epoch Day202.82680637
Epoch Year2018
RAAN273.3729
Inclination97.35
Eccentricity0.0001061
Argument of Perigee79.5178
Mean Anonmoly57.6649
Mean Motion15.22872531
Decay Rate-6.8E-07
L11 41774U 16058E 18202.82680637 -.00000068 00000-0 00000+0 0 9990
L22 41774 97.3500 273.3729 0001061 79.5178 57.6649 15.22872531102485

Live tracking and technical data element details for SKYSAT-C3 (NORAD 41774). SKYSAT-C3 can be tracked NOW for your location showing map with azimuth and elevation plus other details from your city location.

Track the satellite on the map from your city or location and see movement details for azimuth, elevation, latitude, longitude, range, height, and movement on the map or in text.







IsCatalogInMostPopularTable: catalog: 41774, numindb: 71
Update: records affected: 1



GetName: 41774 SKYSAT-C3

Hit Count: updated at: Mon, 23 Jul 2018 07:36:25 GMT